User: anonymous   Login
Location: Unspecified
(0.0000°N, 0.0000°E)
Time: 11:40:02
(UTC+01:00)
Language:

Meteor 1-31 Rocket - Orbit

View from above orbital plane
View from above orbital plane
View from above satellite
View from above satellite

Ground track
Ground track

The orbit data is extracted from the following two-line orbital elements,

1 12586U 81065B   17014.90715115  .00000431  00000-0  30484-4 0  9995
2 12586  97.4803 359.9955 0019485  12.1395 348.0299 15.09787574933371
Epoch (UTC): 14 January 2017 21:46:17
Eccentricity: 0.0019485
inclination: 97.4803°
perigee height: 523 km
apogee height: 550 km
right ascension of ascending node: 359.9955°
argument of perigee: 12.1395°
revolutions per day: 15.09787574
mean anomaly at epoch: 348.0299°
orbit number at epoch: 93337

The dashed part of the orbit path shows where the satellite is in the earth's shadow,  

DLR